When you browse on this site, cookies collect data to enhance your experience and personalize the content and advertising you see.
Visit our Privacy Policy to learn more. By continuing to use the site, you agree to this use of cookies and data.
  • In Romania
  • List of Countries
  • For 7 days
  • Water Temperature
  • Weather Map
  • Weather Widgets
  • user-avatar
    Login

    Hourly Weather Chorozinho

    Today, 12 December, Thursday

    Time Temperature Precipitation Wind Pressure Humidity
    00:00 +27°C° 0 mm 1 mps 752 mmHg 88%
    01:00 +27°C° 0.1 mm 1 mps 752 mmHg 88%
    02:00 +27°C° 0.1 mm 1 mps 752 mmHg 88%
    03:00 +27°C° 0.1 mm 1 mps 752 mmHg 87%
    04:00 +27°C° 0.9 mm 1 mps 752 mmHg 87%
    05:00 +27°C° 0.9 mm 2 mps 752 mmHg 86%
    06:00 +27°C° 0.9 mm 2 mps 753 mmHg 86%
    07:00 +28°C° 1.3 mm 2 mps 753 mmHg 80%
    08:00 +29°C° 1.3 mm 2 mps 754 mmHg 74%
    09:00 +30°C° 1.3 mm 2 mps 754 mmHg 68%
    10:00 +31°C° 1.4 mm 3 mps 753 mmHg 65%
    11:00 +33°C° 1.4 mm 3 mps 753 mmHg 62%
    12:00 +34°C° 1.4 mm 3 mps 752 mmHg 60%
    13:00 +34°C° 1.1 mm 3 mps 752 mmHg 60%
    14:00 +34°C° 1.1 mm 3 mps 751 mmHg 60%
    15:00 +34°C° 1.1 mm 3 mps 751 mmHg 60%
    16:00 +31°C° 0.1 mm 3 mps 751 mmHg 66%
    17:00 +30°C° 0.1 mm 3 mps 751 mmHg 72%
    18:00 +28°C° 0.1 mm 2 mps 751 mmHg 77%
    19:00 +28°C° 0 mm 2 mps 752 mmHg 80%
    20:00 +28°C° 0 mm 2 mps 752 mmHg 83%
    21:00 +27°C° 0 mm 2 mps 753 mmHg 85%
    22:00 +27°C° 0 mm 2 mps 753 mmHg 85%
    23:00 +27°C° 0 mm 2 mps 753 mmHg 85%

    Tomorrow, 13 December, Friday

    Time Temperature Precipitation Wind Pressure Humidity
    00:00 +27°C° 0 mm 2 mps 752 mmHg 85%
    01:00 +27°C° 0.1 mm 2 mps 752 mmHg 84%
    02:00 +27°C° 0.1 mm 2 mps 752 mmHg 83%
    03:00 +27°C° 0.1 mm 2 mps 752 mmHg 81%
    04:00 +27°C° 0 mm 2 mps 752 mmHg 81%
    05:00 +27°C° 0 mm 2 mps 753 mmHg 80%
    06:00 +26°C° 0 mm 2 mps 753 mmHg 80%
    07:00 +28°C° 0 mm 3 mps 754 mmHg 72%
    08:00 +30°C° 0 mm 3 mps 754 mmHg 63%
    09:00 +31°C° 0 mm 3 mps 754 mmHg 55%
    10:00 +34°C° 0 mm 4 mps 754 mmHg 50%
    11:00 +35°C° 0 mm 4 mps 753 mmHg 46%
    12:00 +37°C° 0 mm 4 mps 752 mmHg 41%
    13:00 +36°C° 0 mm 4 mps 752 mmHg 43%
    14:00 +36°C° 0 mm 4 mps 751 mmHg 44%
    15:00 +36°C° 0 mm 4 mps 750 mmHg 46%
    16:00 +34°C° 0 mm 4 mps 751 mmHg 54%
    17:00 +32°C° 0 mm 4 mps 751 mmHg 62%
    18:00 +29°C° 0 mm 3 mps 751 mmHg 70%
    19:00 +28°C° 0 mm 3 mps 752 mmHg 73%
    20:00 +28°C° 0 mm 2 mps 752 mmHg 76%
    21:00 +28°C° 0 mm 2 mps 753 mmHg 78%
    22:00 +27°C° 0 mm 2 mps 752 mmHg 80%
    23:00 +27°C° 0 mm 2 mps 752 mmHg 81%

    Day after tomorrow, 14 December, Saturday

    Time Temperature Precipitation Wind Pressure Humidity
    00:00 +27°C° 0 mm 2 mps 752 mmHg 82%
    01:00 +27°C° 0 mm 2 mps 752 mmHg 83%
    02:00 +27°C° 0 mm 2 mps 752 mmHg 83%
    03:00 +27°C° 0 mm 2 mps 752 mmHg 84%
    04:00 +26°C° 0 mm 2 mps 752 mmHg 83%
    05:00 +26°C° 0 mm 2 mps 753 mmHg 83%
    06:00 +26°C° 0 mm 2 mps 753 mmHg 82%
    07:00 +28°C° 0 mm 3 mps 754 mmHg 73%
    08:00 +30°C° 0 mm 3 mps 754 mmHg 63%
    09:00 +33°C° 0 mm 3 mps 754 mmHg 54%
    10:00 +34°C° 0 mm 3 mps 754 mmHg 48%
    11:00 +36°C° 0 mm 3 mps 753 mmHg 43%
    12:00 +37°C° 0 mm 3 mps 753 mmHg 38%
    13:00 +37°C° 0 mm 4 mps 752 mmHg 39%
    14:00 +37°C° 0 mm 4 mps 751 mmHg 39%
    15:00 +37°C° 0 mm 5 mps 751 mmHg 40%
    16:00 +35°C° 0 mm 4 mps 751 mmHg 48%
    17:00 +33°C° 0 mm 3 mps 751 mmHg 55%
    18:00 +30°C° 0 mm 3 mps 751 mmHg 63%
    19:00 +29°C° 0 mm 3 mps 752 mmHg 69%
    20:00 +29°C° 0 mm 2 mps 752 mmHg 74%
    21:00 +28°C° 0 mm 2 mps 753 mmHg 80%
    22:00 +28°C° 0 mm 2 mps 753 mmHg 80%
    23:00 +28°C° 0 mm 2 mps 753 mmHg 81%

    15 December, Sunday

    Time Temperature Precipitation Wind Pressure Humidity
    00:00 +28°C° 0 mm 2 mps 753 mmHg 81%
    01:00 +28°C° 0.1 mm 2 mps 752 mmHg 82%
    02:00 +27°C° 0.1 mm 2 mps 752 mmHg 82%
    03:00 +27°C° 0.1 mm 2 mps 752 mmHg 83%
    04:00 +27°C° 0 mm 2 mps 752 mmHg 81%
    05:00 +27°C° 0 mm 2 mps 753 mmHg 80%
    06:00 +26°C° 0 mm 2 mps 753 mmHg 79%
    07:00 +28°C° 0 mm 3 mps 753 mmHg 70%
    08:00 +30°C° 0 mm 3 mps 754 mmHg 61%
    09:00 +33°C° 0 mm 3 mps 754 mmHg 52%
    10:00 +35°C° 0 mm 3 mps 753 mmHg 46%
    11:00 +36°C° 0 mm 3 mps 753 mmHg 40%
    12:00 +38°C° 0 mm 3 mps 752 mmHg 35%
    13:00 +37°C° 0 mm 4 mps 752 mmHg 38%
    14:00 +36°C° 0 mm 4 mps 751 mmHg 42%
    15:00 +35°C° 0 mm 5 mps 750 mmHg 46%
    16:00 +34°C° 0 mm 4 mps 751 mmHg 54%
    17:00 +31°C° 0 mm 3 mps 751 mmHg 62%
    18:00 +29°C° 0 mm 3 mps 751 mmHg 69%
    19:00 +29°C° 0 mm 3 mps 752 mmHg 73%
    20:00 +28°C° 0 mm 3 mps 752 mmHg 77%
    21:00 +28°C° 0 mm 3 mps 753 mmHg 82%
    22:00 +28°C° 0 mm 2 mps 753 mmHg 82%
    23:00 +27°C° 0 mm 2 mps 753 mmHg 83%

    16 December, Monday

    Time Temperature Precipitation Wind Pressure Humidity
    00:00 +27°C° 0 mm 2 mps 753 mmHg 84%
    01:00 +27°C° 0.1 mm 1 mps 753 mmHg 85%
    02:00 +26°C° 0.1 mm 1 mps 752 mmHg 87%
    03:00 +26°C° 0.1 mm 1 mps 752 mmHg 88%
    04:00 +26°C° 0.1 mm 1 mps 752 mmHg 87%
    05:00 +26°C° 0.1 mm 1 mps 752 mmHg 85%
    06:00 +26°C° 0.1 mm 2 mps 753 mmHg 84%
    07:00 +28°C° 0 mm 2 mps 753 mmHg 74%
    08:00 +30°C° 0 mm 2 mps 753 mmHg 64%
    09:00 +33°C° 0 mm 3 mps 754 mmHg 53%
    10:00 +35°C° 0 mm 3 mps 753 mmHg 47%
    11:00 +36°C° 0 mm 3 mps 753 mmHg 40%
    12:00 +38°C° 0 mm 3 mps 753 mmHg 34%
    13:00 +37°C° 0 mm 4 mps 752 mmHg 36%
    14:00 +37°C° 0 mm 4 mps 751 mmHg 38%
    15:00 +36°C° 0 mm 5 mps 751 mmHg 40%
    16:00 +34°C° 0 mm 4 mps 751 mmHg 50%
    17:00 +32°C° 0 mm 4 mps 751 mmHg 60%
    18:00 +29°C° 0 mm 3 mps 751 mmHg 70%
    19:00 +28°C° 0 mm 2 mps 752 mmHg 74%
    20:00 +27°C° 0 mm 2 mps 752 mmHg 79%
    21:00 +27°C° 0 mm 2 mps 753 mmHg 83%
    22:00 +27°C° 0 mm 1 mps 753 mmHg 84%
    23:00 +27°C° 0 mm 1 mps 753 mmHg 85%

    17 December, Tuesday

    Time Temperature Precipitation Wind Pressure Humidity
    00:00 +26°C° 0 mm 1 mps 753 mmHg 87%
    01:00 +26°C° 0 mm 1 mps 752 mmHg 88%
    02:00 +26°C° 0 mm 1 mps 752 mmHg 89%
    03:00 +26°C° 0 mm 1 mps 752 mmHg 90%
    04:00 +26°C° 0.1 mm 1 mps 752 mmHg 88%
    05:00 +26°C° 0.1 mm 1 mps 752 mmHg 87%
    06:00 +27°C° 0.1 mm 1 mps 753 mmHg 85%
    07:00 +28°C° 0 mm 2 mps 753 mmHg 74%
    08:00 +30°C° 0 mm 2 mps 753 mmHg 64%
    09:00 +33°C° 0 mm 3 mps 754 mmHg 53%
    10:00 +35°C° 0 mm 3 mps 753 mmHg 48%
    11:00 +36°C° 0 mm 3 mps 753 mmHg 42%
    12:00 +37°C° 0 mm 3 mps 752 mmHg 36%
    13:00 +37°C° 0 mm 3 mps 752 mmHg 37%
    14:00 +37°C° 0 mm 4 mps 751 mmHg 38%
    15:00 +36°C° 0 mm 4 mps 750 mmHg 39%
    16:00 +34°C° 0 mm 4 mps 751 mmHg 48%
    17:00 +32°C° 0 mm 4 mps 751 mmHg 57%
    18:00 +29°C° 0 mm 3 mps 751 mmHg 66%
    19:00 +28°C° 0 mm 3 mps 751 mmHg 71%
    20:00 +27°C° 0 mm 2 mps 752 mmHg 76%
    21:00 +27°C° 0 mm 2 mps 752 mmHg 81%
    22:00 +27°C° 0 mm 2 mps 752 mmHg 82%
    23:00 +26°C° 0 mm 1 mps 752 mmHg 84%
    Show more